Location: �chenoz-la-M�line
(47.6009°N, 6.1354°E)
Time: 13:00:53
(UTC+00:00)

Cosmos 2369 Rocket - Pass Details

Date: 27 January 2021
Orbit: 830 x 851 km, 71.0° (Epoch: 02 March)

Event Time Altitude Azimuth Distance (km) Brightness Sun altitude
Exits shadow 05:00:32 - 342° (NNW) 2,511 4.4 -21.4°
Reaches altitude 10° 05:00:42 10° 342° (NNW) 2,452 4.4 -21.4°
Maximum altitude 05:06:03 44° 55° (NE) 1,144 3.2 -20.5°
Drops below altitude 10° 05:11:21 10° 127° (SE) 2,434 5.5 -19.6°
Sets 05:13:54 0° 133° (SE) 3,364 6.2 -19.2°
